[Iaude] MPEC W113: 2023 WW2 [a=1.28,e=0.27,i=22.6,H=24.7]
    mpec at marsden.cfa.harvard.edu 
    mpec at marsden.cfa.harvard.edu
       
    Fri Nov 24 10:34:33 EST 2023
    
    
  
M.P.E.C. 2023-W113                            Issued 2023 November 24, 15:32 UT
     The Minor Planet Electronic Circulars contain information on unusual
         minor planets, routine data on comets and natural satellites,
         and occasional editorial announcements.  They are published
    on behalf of Division F of the International Astronomical Union by the
          Minor Planet Center, Smithsonian Astrophysical Observatory,
                          Cambridge, MA 02138, U.S.A.
			  
             Prepared using the Tamkin Foundation Computer Network
                              MPC at CFA.HARVARD.EDU
            URL https://www.minorplanetcenter.net/    ISSN 1523-6714
                                    2023 WW2                                    
Observations:
     K23W02W*1C2023 11 23.16263203 56 16.069+10 23 41.60         18.45GVEW113703
     K23W02W 1C2023 11 23.16757503 56 12.649+10 26 21.30               VEW113703
     K23W02W 1C2023 11 23.17252103 56 09.233+10 29 02.08         18.35GVEW113703
     K23W02W 1C2023 11 23.17746503 56 05.860+10 31 41.09         18.19GVEW113703
     K23W02W mC2023 11 23.25160603 55 14.585+11 11 23.75         18.38GVEW113I52
     K23W02W mC2023 11 23.25177603 55 14.473+11 11 29.11         18.26GVEW113I52
     K23W02W mC2023 11 23.25194503 55 14.354+11 11 34.51         18.37GVEW113I52
     K23W02W mC2023 11 23.25211503 55 14.228+11 11 39.91         18.54GVEW113I52
     K23W02W KB2023 11 23.33760 03 54 12.23 +11 56 32.9          18.4 GXEW113H36
     K23W02W KB2023 11 23.34082 03 54 10.01 +11 58 14.6          18.4 GXEW113H36
     K23W02W KB2023 11 23.34402 03 54 07.84 +11 59 55.5          18.2 GXEW113H36
     K23W02W KC2023 11 23.78682303 49 45.45 +15 46 06.0          18.6 GVEW113L01
     K23W02W KC2023 11 23.78830403 49 44.50 +15 46 50.4          18.7 GVEW113L01
     K23W02W KC2023 11 23.78978203 49 43.57 +15 47 34.9          18.5 GVEW113L01
     K23W02W KC2023 11 23.79125903 49 42.60 +15 48 19.4          18.7 GVEW113L01
     K23W02W KC2023 11 23.79273403 49 41.64 +15 49 03.3          18.7 GVEW113L01
     K23W02W KC2023 11 23.82313903 49 22.25 +16 04 08.9          17.8 GVEW113L06
     K23W02W KC2023 11 23.82424503 49 21.54 +16 04 42.2          18.0 GVEW113L06
     K23W02W KC2023 11 23.82516703 49 20.94 +16 05 10.0          17.9 GVEW113L06
     K23W02W KC2023 11 23.86921503 48 52.03 +16 27 05.4                VEW113104
     K23W02W KC2023 11 23.87191903 48 50.23 +16 28 25.7          17.8 GVEW113104
     K23W02W KC2023 11 23.87462203 48 48.44 +16 29 45.7          18.2 GVEW113104
     K23W02W KB2023 11 23.88372 03 48 42.65 +16 34 12.1          18.5 GXEW113G15
     K23W02W KC2023 11 23.88636503 48 40.87 +16 35 26.8          18.4 GVEW113204
     K23W02W KC2023 11 23.88873703 48 39.05 +16 36 42.5          18.3 GVEW113G17
     K23W02W KC2023 11 23.89012903 48 38.35 +16 37 17.9                VEW113204
     K23W02W KB2023 11 23.89159 03 48 37.43 +16 38 03.2          18.1 GXEW113G15
     K23W02W KB2023 11 23.89170 03 48 36.56 +16 38 05.5          18.5 RZEW113106
     K23W02W KC2023 11 23.89390403 48 35.86 +16 39 09.3                VEW113204
     K23W02W KB2023 11 23.89446 03 48 34.70 +16 39 26.5          18.1 RZEW113106
     K23W02W KB2023 11 23.89469 03 48 35.89 +16 39 37.7          18.5 VZEW113C95
     K23W02W KB2023 11 23.89576 03 48 34.63 +16 40 06.5          18.1 GXEW113G15
     K23W02W KB2023 11 23.89723 03 48 33.01 +16 40 48.1          18.1 RZEW113106
     K23W02W KB2023 11 23.89979 03 48 32.49 +16 42 06.8          18.8 VZEW113C95
     K23W02W KB2023 11 23.89993 03 48 31.11 +16 42 08.2          17.9 RZEW113106
     K23W02W KC2023 11 23.90148703 48 30.61 +16 42 58.9          18.3 GVEW113G17
     K23W02W KB2023 11 23.90487 03 48 29.14 +16 44 36.8          18.9 VZEW113C95
     K23W02W KC2023 11 23.93035303 48 11.450+16 57 04.81         18.6 GVEW113K63
     K23W02W KB2023 11 23.93543603 48 07.56 +16 59 29.6                XEW113595
     K23W02W KC2023 11 23.93622903 48 07.531+16 59 57.40         18.9 GVEW113K63
     K23W02W KB2023 11 23.93887203 48 05.25 +17 01 09.3          18.3 GXEW113595
     K23W02W KC2023 11 23.94077103 48 04.473+17 02 10.35         18.7 GVEW113K63
     K23W02W KB2023 11 23.94223503 48 03.03 +17 02 48.1                XEW113595
     K23W02W KC2023 11 23.98611003 47 36.022+17 23 49.31         18.1 GVEW113Z80
     K23W02W KC2023 11 23.99688003 47 28.956+17 29 01.28         18.1 GVEW113Z80
     K23W02W KC2023 11 24.20716503 45 27.91 +19 08 55.8          19.0 GVEW113U55
     K23W02W KC2023 11 24.21175703 45 25.03 +19 11 03.8          19.0 GVEW113U55
Observer details:
104 San Marcello Pistoiese.  Observers P. Bacci, M. Maestripieri.  Measurers
    P. Bacci, L. Tesi, G. Fagioli.  0.60-m F4 Reflector + CCD.
106 Crni Vrh.  Observer H. Mikuz.  0.60-m f/3.3 reflector + CMO.
204 Schiaparelli Observatory.  Observers L. Buzzi, G. Galli.  0.84-m f/3.5
    reflector + CCD.
595 Farra d'Isonzo.  Observer E. Pettarin.  0.40-m f/3.3 reflector + CMO.
703 Catalina Sky Survey.  Observer K. W. Wierzchos.  Measurers E. C. Beshore,
    D. Fay, J. B. Fazekas, D. C. Fuls, A. R. Gibbs, A. D. Grauer, H. Groeller,
    J. K. Hogan, R. A. Kowalski, S. M. Larson, G. J. Leonard, D. Rankin, R. L.
    Seaman, F. C. Shelly, K. W. Wierzchos.  0.68-m Schmidt + 10K CCD.
C95 SATINO Remote Observatory, Haute Provence.  Observer D. Husar.  0.30-m
    f/5.8 reflector + CMO.
G15 Magroforte Observatory, Alessandria.  Observer A. De Pieri.  0.23-m f/6.7
    SC + CMO.
G17 BAS Observatory, Scandicci.  Observer L. Grazzini.  0.20-m f/10 Schmidt-
    Cassegrain + CCD + f/6.3 focal reducer.
H36 Sandlot Observatory, Scranton.  Observer G. Hug.  0.56-m f/4.8 reflector +
    CMO.
I52 Steward Observatory, Mt. Lemmon Station.  Observer K. W. Wierzchos.
    Measurers E. C. Beshore, D. Fay, J. B. Fazekas, D. C. Fuls, A. R. Gibbs,
    A. D. Grauer, H. Groeller, J. K. Hogan, R. A. Kowalski, S. M. Larson, G.
    J. Leonard, D. Rankin, R. L. Seaman, F. C. Shelly, K. W. Wierzchos.  1.0-m
    prime focus + CCD.
K63 G. Pascoli Observatory, Castelvecchio Pascoli.  Observer R. Bacci.  0.41-m
    f/3.75 0.41m f/3.2  Newton + CCD.
L01 Visnjan Observatory, Tican.  Observer K. Korlevic.  1.0-m f/2.9 reflector
    + CCD.
L06 Sormano 2 Observatory, Bellagio Via Lattea.  Observers E. Valli, G.
    Ventre.  Measurer P. Sicoli.  0.36m Schmidt Cassegrain + CCD.
U55 Golden Ears Observatory, Maple Ridge.  Observer B. Kumar.  0.25-m f/8
    reflector + CCD.
Z80 Northolt Branch Observatory.  Observer G. Wells.  Measurers G. Wells, D.
    Bamberger.  0.25-m f/8.0 Ritchey-Chretien + CCD.
Orbital elements:
2023 WW2                                                 Earth MOID = 0.0433 AU
Epoch 2023 Sept. 13.0 TT = JDT 2460200.5                Veres                   
M 344.35914              (2000.0)            P               Q                  
n   0.67838672     Peri.  304.05958     +0.94010899     -0.05520291             
a   1.2827770      Node    61.26369     +0.23949721     +0.80916214             
e   0.2664092      Incl.   22.55812     -0.24256168     +0.58498655             
P   1.45           H   24.76          G   0.15           U   8                  
Residuals in seconds of arc
231123 703  1.0+  0.1+    231123 L06  0.1-  0.6-    231123 106  1.9+  0.2-
231123 703  0.2+  0.1-    231123 L06  0.0   0.3-    231123 C95  0.4-  0.5-
231123 703  0.5-  0.7+    231123 L06  0.0   0.0     231123 106  0.3+  0.4+
231123 703  0.4-  0.0     231123 104  0.2-  0.2+    231123 G17  0.4+  0.2-
231123 I52  0.0   0.0     231123 104  0.4-  0.4+    231123 C95  0.0   0.1-
231123 I52  0.1+  0.1-    231123 104  0.4-  0.4+    231123 K63  0.0   0.7-
231123 I52  0.1+  0.1-    231123 G15  0.4+  0.3+    231123 595  0.1+  0.2+
231123 I52  0.0   0.1-    231123 204  0.4+  0.0     231123 K63  0.0   0.1-
231123 H36  0.3-  0.1+    231123 G17  0.2-  0.8-    231123 595  0.2-  0.5-
231123 H36  0.6-  0.5+    231123 204  0.1-  0.0     231123 K63  0.4-  0.1+
231123 H36  0.3-  0.6+    231123 G15  0.3+  0.9-    231123 595  0.0   0.1+
231123 L01  0.1+  0.3-    231123 106  0.1+  0.2+    231123 Z80  0.1+  0.2-
231123 L01  0.2+  0.4-    231123 204  0.1+  0.0     231123 Z80  0.4+  0.3-
231123 L01  0.5+  0.2-    231123 106  0.3-  0.2-    231124 U55  0.4-  0.9+
231123 L01  0.3+  0.0     231123 C95  0.1-  0.8+    231124 U55  0.4+  0.6-
231123 L01  0.2+  0.4-    231123 G15  0.2-  0.6-
Ephemeris:
2023 WW2                 a,e,i = 1.28, 0.27, 23                  q = 0.9410
Date    TT    R. A. (2000) Decl.     Delta      r    Elong.  Phase     V
2023 10 25    09 07 23.0 -73 24 34   0.2098  0.9567    73.6    94.3    24.6
...
2023 11 09    06 51 18.7 -66 21 25   0.1055  0.9894    86.2    87.7    22.9
...
2023 11 17    05 09 43.9 -42 49 20   0.05563 1.0128   114.0    63.1    20.8
...
2023 11 23    03 57 51.8 +08 56 34   0.04574 1.0325   168.7    10.8    18.8
2023 11 24    03 47 28.1 +17 31 49   0.04862 1.0360   176.5     3.3    18.6
2023 11 25    03 37 37.3 +24 58 10   0.05256 1.0394   173.2     6.4    18.9
...
2023 12 01    02 50 13.5 +49 37 26   0.08874 1.0611   146.3    31.1    21.0
...
2023 12 09    02 14 10.5 +59 43 28   0.1487  1.0918   133.0    41.3    22.4
...
2023 12 24    02 00 05.3 +64 27 14   0.2691  1.1529   123.1    45.6    24.0
M. P. C. Staff               (C) Copyright 2023 MPC           M.P.E.C. 2023-W113
    
    
More information about the Iaude
mailing list